Clines Corners, NM

11:45 PM MST on December 02, 2016 (GMT -0700)
Clines Corner

Weather History for KCQC - May, 2012

Change the Weather History Date:

Monday, May 7, 2012

  Actual Average (KABQ) Record (KABQ)
Temperature  
Mean Temperature 45 °F 63 °F  
Max Temperature 52 °F 76 °F 92 °F (1989)
Min Temperature 39 °F 50 °F 25 °F (1917)
Degree Days  
Heating Degree Days 20 4  
Month to date heating degree days 30  
Since 1 July heating degree days 4134  
Cooling Degree Days 0 1  
Month to date cooling degree days 7  
Year to date cooling degree days 14  
Moisture  
Dew Point 39 °F    
Average Humidity 79    
Maximum Humidity 97    
Minimum Humidity 54    
Precipitation  
Precipitation 0.00 in 0.02 in 0.17 in (1893)
Month to date precipitation 0.11  
Year to date precipitation 2.15  
Snow  
Snow 0.00 in - - ()
Month to date snowfall  
Since 1 July snowfall  
Snow Depth -    
Sea Level Pressure  
Sea Level Pressure 30.10 in    
Wind  
Wind Speed 21 mph (East)    
Max Wind Speed 30 mph    
Max Gust Speed 39 mph    
Visibility 7 miles    
Events Fog , Rain    
T = Trace of Precipitation, MM = Missing Value Source: NWS Daily Summary

Daily Weather History Graph

Daily Weather History Graph

Search for Another Location

Airport or City:

Trip Planner

Search our weather history database for the weather conditions in past years. The results will help you decide how hot, cold, wet, or windy it might be!

Date:

Astronomy

May. 07, 2012 Rise Set
Actual Time 6:05 AM MDT 7:53 PM MDT
Civil Twilight 5:37 AM MDT 8:21 PM MDT
Nautical Twilight 5:04 AM MDT 8:54 PM MDT
Astronomical Twilight 4:29 AM MDT 9:29 PM MDT
Moon 10:04 PM MDT (5/7) 7:16 AM MDT (5/7)
Length of Visible Light 14h 43m
Length of Day
13h 48m
Waning Gibbous, 96% of the Moon is Illuminated
May 7
Waning Gibbous
May 12
Last Quarter
May 20
New
May 28
First Quarter
Jun 4
Full

Hourly Weather History & Observations

Time (MDT) Temp. Windchill Dew Point Humidity Pressure Visibility Wind Dir Wind Speed Gust Speed Precip Events Conditions
12:16 AM 51.8 °F - 44.6 °F 76% 30.15 in 10.0 mi East 16.1 mph 25.3 mph N/A   Mostly Cloudy
12:53 AM 51.1 °F - 46.0 °F 83% 29.89 in 10.0 mi East 21.9 mph 31.1 mph N/A   Overcast
1:03 AM 51.8 °F - 46.4 °F 82% 30.14 in 10.0 mi East 19.6 mph 28.8 mph N/A   Overcast
1:53 AM 50.0 °F - 46.0 °F 86% 29.91 in 10.0 mi East 17.3 mph - N/A   Overcast
2:53 AM 50.0 °F - 46.0 °F 86% 29.89 in 10.0 mi East 15.0 mph - N/A   Overcast
3:53 AM 48.0 °F - 45.0 °F 89% 29.91 in 10.0 mi East 15.0 mph 26.5 mph N/A   Overcast
4:53 AM 48.0 °F - 44.1 °F 86% 29.93 in 10.0 mi East 20.7 mph 26.5 mph N/A   Overcast
5:50 AM 46.4 °F 39.2 °F 44.6 °F 93% 30.17 in 10.0 mi East 18.4 mph 26.5 mph N/A   Overcast
5:53 AM 46.9 °F - 44.1 °F 90% 29.94 in 9.0 mi East 19.6 mph 26.5 mph N/A   Overcast
6:40 AM 46.4 °F 38.7 °F 44.6 °F 93% 30.18 in 1.2 mi East 20.7 mph 26.5 mph N/A   Overcast
6:43 AM 46.4 °F 39.5 °F 44.6 °F 93% 30.18 in 0.5 mi East 17.3 mph 26.5 mph N/A Fog Fog
6:53 AM 46.9 °F - 45.0 °F 93% 29.97 in 0.5 mi East 20.7 mph 27.6 mph 0.00 in Fog , Rain Light Rain
6:58 AM 46.4 °F 39.2 °F 44.6 °F 93% 30.19 in 0.2 mi ESE 18.4 mph 27.6 mph 0.00 in Fog Fog
7:07 AM 46.4 °F 38.7 °F 44.6 °F 93% 30.19 in 0.5 mi East 20.7 mph 27.6 mph 0.00 in Fog , Rain Light Rain
7:17 AM 46.4 °F 39.2 °F 44.6 °F 93% 30.19 in 2.0 mi East 18.4 mph 25.3 mph 0.00 in   Overcast
7:25 AM 46.4 °F 39.0 °F 44.6 °F 93% 30.19 in 1.0 mi East 19.6 mph 26.5 mph 0.00 in   Overcast
7:42 AM 46.4 °F 38.7 °F 44.6 °F 93% 30.19 in 0.5 mi East 20.7 mph 28.8 mph 0.00 in Fog Fog
7:53 AM 46.9 °F - 45.0 °F 93% 29.99 in 0.2 mi East 21.9 mph 29.9 mph 0.00 in Fog , Rain Light Rain
8:09 AM 46.4 °F 38.7 °F 44.6 °F 93% 30.19 in 1.0 mi East 20.7 mph 29.9 mph 0.00 in Rain Light Rain
8:22 AM 46.4 °F 39.2 °F 44.6 °F 93% 30.19 in 0.2 mi East 18.4 mph 32.2 mph 0.00 in Fog Fog
8:48 AM 46.4 °F 39.0 °F 44.6 °F 93% 30.19 in 0.5 mi East 19.6 mph 39.1 mph 0.00 in Fog , Rain Light Rain
8:53 AM 45.0 °F 36.4 °F 44.1 °F 97% 30.02 in 0.2 mi East 23.0 mph 33.4 mph 0.00 in Fog , Rain Light Rain
9:02 AM 44.6 °F 35.9 °F 42.8 °F 93% 30.19 in 0.2 mi East 23.0 mph 33.4 mph 0.00 in Fog , Rain Light Rain
9:10 AM 44.6 °F 36.1 °F 42.8 °F 93% 30.20 in 0.2 mi East 21.9 mph 34.5 mph 0.00 in Fog , Rain Light Rain
9:22 AM 44.6 °F 35.7 °F 42.8 °F 93% 30.19 in 0.2 mi East 24.2 mph 32.2 mph 0.00 in Fog , Rain Light Rain
9:48 AM 39.2 °F 29.0 °F 37.4 °F 93% 30.21 in 1.5 mi East 21.9 mph 34.5 mph 0.00 in Rain Light Rain
9:50 AM 39.2 °F 29.0 °F 37.4 °F 93% 30.21 in 4.0 mi ENE 21.9 mph 34.5 mph 0.00 in Rain Light Rain
9:53 AM 39.0 °F 28.5 °F 37.0 °F 93% 30.08 in 8.0 mi ENE 23.0 mph 31.1 mph 0.00 in Rain Light Rain
10:05 AM 39.2 °F 29.6 °F 33.8 °F 81% 30.22 in 10.0 mi East 19.6 mph 28.8 mph 0.00 in   Overcast
10:42 AM 42.8 °F 33.3 °F 35.6 °F 76% 30.21 in 10.0 mi East 24.2 mph 31.1 mph 0.00 in   Overcast
10:53 AM 44.1 °F 34.8 °F 36.0 °F 73% 30.06 in 10.0 mi East 25.3 mph 31.1 mph 0.00 in   Overcast
11:10 AM 42.8 °F 33.8 °F 35.6 °F 76% 30.21 in 10.0 mi ENE 21.9 mph 32.2 mph N/A   Overcast
11:49 AM 44.6 °F 35.3 °F 35.6 °F 71% 30.20 in 10.0 mi East 26.5 mph 34.5 mph N/A   Overcast
11:53 AM 46.0 °F 37.0 °F 35.1 °F 66% 30.06 in 10.0 mi East 27.6 mph 34.5 mph N/A   Overcast
12:04 PM 46.4 °F 38.3 °F 33.8 °F 62% 30.20 in 10.0 mi East 23.0 mph 35.7 mph N/A   Overcast
12:53 PM 48.9 °F - 34.0 °F 56% 30.03 in 10.0 mi ENE 28.8 mph 35.7 mph N/A   Scattered Clouds
1:05 PM 48.2 °F - 33.8 °F 58% 30.19 in 10.0 mi East 24.2 mph 31.1 mph N/A   Mostly Cloudy
1:53 PM 48.9 °F - 35.1 °F 59% 30.02 in 10.0 mi East 24.2 mph 35.7 mph N/A   Mostly Cloudy
2:09 PM 50.0 °F - 35.6 °F 58% 30.16 in 10.0 mi ENE 28.8 mph 38.0 mph N/A   Scattered Clouds
2:37 PM 50.0 °F - 35.6 °F 58% 30.15 in 10.0 mi East 29.9 mph 38.0 mph N/A   Mostly Cloudy
2:53 PM 48.9 °F - 35.1 °F 59% 29.98 in 10.0 mi ENE 25.3 mph 36.8 mph N/A   Mostly Cloudy
3:42 PM 50.0 °F - 35.6 °F 58% 30.13 in 10.0 mi East 26.5 mph 39.1 mph N/A   Scattered Clouds
3:53 PM 51.1 °F - 35.1 °F 54% 29.97 in 10.0 mi East 27.6 mph 36.8 mph N/A   Partly Cloudy
4:18 PM 48.2 °F - 35.6 °F 62% 30.12 in 10.0 mi East 27.6 mph 34.5 mph N/A   Mostly Cloudy
4:45 PM 48.2 °F - 33.8 °F 58% 30.12 in 10.0 mi East 25.3 mph 39.1 mph N/A   Partly Cloudy
4:53 PM 50.0 °F - 35.1 °F 57% 29.98 in 10.0 mi East 26.5 mph 39.1 mph N/A   Partly Cloudy
5:53 PM 48.0 °F - 34.0 °F 58% 29.99 in 10.0 mi East 25.3 mph 35.7 mph N/A   Partly Cloudy
6:53 PM 46.9 °F - 34.0 °F 61% 30.00 in 10.0 mi East 26.5 mph 34.5 mph N/A   Partly Cloudy
7:34 PM 44.6 °F 35.9 °F 35.6 °F 71% 30.15 in 10.0 mi East 23.0 mph 35.7 mph N/A   Mostly Cloudy
7:53 PM 44.1 °F 35.7 °F 35.1 °F 71% 30.04 in 10.0 mi East 20.7 mph 28.8 mph N/A   Overcast
8:25 PM 42.8 °F 33.8 °F 35.6 °F 76% 30.18 in 10.0 mi East 21.9 mph 29.9 mph N/A   Scattered Clouds
8:53 PM 43.0 °F 34.2 °F 34.0 °F 71% 30.08 in 10.0 mi East 20.7 mph 29.9 mph N/A   Partly Cloudy
9:53 PM 42.1 °F 33.1 °F 34.0 °F 73% 30.11 in 10.0 mi East 20.7 mph 27.6 mph N/A   Clear
10:53 PM 39.9 °F 30.8 °F 35.1 °F 83% 30.11 in 10.0 mi ENE 18.4 mph - N/A   Partly Cloudy
11:53 PM 39.0 °F 31.0 °F 34.0 °F 82% 30.13 in 10.0 mi ENE 13.8 mph - N/A   Clear